Location: Maiden
(35.5760°N, 81.2120°W)
Time: 02:10:21
(UTC-04:00)

A-11 Canister half - Pass Details

Date: 13 August 2020
Orbit: 1527 x 1682 km, 47.3° (Epoch: 25 September)

Event Time Altitude Azimuth Distance (km) Brightness Sun altitude
Rises 13:39:21 0° 262° (W) 4,903 11.7 68.7°
Reaches altitude 10° 13:42:39 10° 267° (W) 3,928 11.3 68.6°
Maximum altitude 13:52:27 51° 342° (NNW) 2,034 10.2 68.2°
Drops below altitude 10° 14:02:15 10° 57° (ENE) 3,930 11.1 67.5°
Sets 14:05:34 0° 63° (ENE) 4,906 11.5 67.3°
